Volver al catálogo

OPS 4682 DEB

ActivoPO
NORAD 14716·DEBRIS·🇺🇸 United States

Lanzado Apr 3, 1965 desde Vandenberg Space Force Base

Loading…

Próximos Pases (próximas 24 horas)

TLE

ActualizadoSource: Space-Track

Época: Sep 13, 2026, 15:05 UTC

1 14716U 65027P   26256.62902648  .00000902  00000-0  29815-2 0  9995
2 14716  90.2575  16.2302 0030175  82.5305 290.7103 12.99693798450961

Sigue OPS 4682 DEB en tiempo real con AllMySat

Download on the App Store